Location: Newark
(34.9471°N, 136.1778°E)
Time: 09:00:20
(UTC+00:00)

LilacSat-2 - Pass Details

Date: 23 February 2020
Orbit: 514 x 534 km, 97.5° (Epoch: 07 April)

Event Time Altitude Azimuth Distance (km) Brightness Sun altitude
Rises 20:16:50 0° 20° (NNE) 2,650 ? -16.2°
Reaches altitude 10° 20:19:02 10° 28° (NNE) 1,761 ? -15.7°
Maximum altitude 20:22:37 39° 98° (E) 797 ? -15.0°
Drops below altitude 10° 20:26:11 10° 169° (SSE) 1,760 ? -14.3°
Sets 20:28:23 0° 177° (S) 2,647 ? -13.8°
